[[{"header":{"parameterUnit":"m.s-1","parameterCategory":1,"la1":30.2991,"la2":30.254,"lo1":-89.0895,"lo2":-89.0444,"dy":0.0017,"dx":0.0017,"nx":28,"ny":28,"refTime":"2025-08-31T21:00:00:Z","depth":0,"parameterNumber":2,"parameterNumberName":"U-component_of_WINDS"},"data":[0,0,0,0,0,0,0,0,0,0,0,0,0,0,0,0,0,0,0,0,0,0,0,0,0,0,0,0,0,0,0,0,0,0,0,0,0,0,0,0,0,0,0,0,0,0,0,0,0,0,0,0,0,0,0,0,0,0,-3.6862,-3.6862,0,-3.6887,-3.6887,-3.6888,-3.6817,-3.6815,-3.6813,-3.6811,-3.6838,-3.6841,-3.6843,0,0,0,0,0,0,0,0,0,0,0,0,0,-3.6755,-3.6758,-3.6862,-3.6862,-3.6863,-3.6887,-3.6887,-3.6888,-3.6817,-3.6815,-3.6812,-3.681,-3.6837,-3.684,-3.6844,0,0,0,0,0,0,0,0,0,0,0,0,0,-3.6793,-3.6758,-3.6862,-3.6831,-3.6828,-3.6887,-3.6887,-3.6888,-3.6818,-3.6815,-3.6811,-3.6808,-3.6836,-3.684,-3.6844,-3.6935,0,0,-3.6857,-3.6859,0,0,0,0,0,0,0,0,-3.6791,-3.6797,-3.6835,-3.6833,-3.683,-3.6846,-3.686,-3.6904,-3.6819,-3.6822,-3.6811,-3.6807,-3.6843,-3.6847,-3.6859,-3.6937,-3.6938,-3.6857,-3.686,-3.6861,-3.6863,0,0,0,0,0,0,0,-3.6789,-3.6796,-3.6872,-3.6836,-3.6833,-3.6816,-3.6818,-3.6868,-3.6851,-3.6821,-3.6816,-3.682,-3.6841,-3.6855,-3.6859,-3.6938,-3.6857,-3.6861,-3.6863,-3.6865,-3.7094,-3.7097,0,0,0,0,0,0,-3.679,-3.6794,-3.6871,-3.6873,-3.6802,-3.682,-3.6822,-3.6844,-3.685,-3.6848,-3.6823,-3.6817,-3.6849,-3.6854,-3.6859,-3.6967,-3.6861,-3.6865,-3.6868,-3.709,-3.7094,-3.7098,0,0,0,0,0,0,-3.6788,-3.6797,-3.687,-3.6832,-3.684,-3.6826,-3.6851,-3.6846,-3.6859,-3.6851,-3.6848,-3.684,-3.6847,-3.6854,-3.6917,-3.6967,-3.6867,-3.6871,-3.7086,-3.7091,-3.7096,-3.7184,0,0,0,0,0,0,-3.6785,-3.6797,-3.6831,-3.6833,-3.6842,-3.6927,-3.6854,-3.6849,-3.6867,-3.6859,-3.6866,-3.6864,-3.6845,-3.6911,-3.6921,-3.6971,-3.6874,-3.7081,-3.7088,-3.7095,-3.7176,-3.7191,-3.7204,0,0,0,0,0,-3.6781,-3.6855,-3.6833,-3.6843,-3.6884,-3.693,-3.6935,-3.6911,-3.6871,-3.6905,-3.69,-3.6864,-3.696,-3.6918,-3.6929,-3.6981,-3.7078,-3.7086,-3.7094,-3.717,-3.7189,-3.7204,0,0,0,0,0,0,-3.6859,-3.6854,-3.683,-3.6906,-3.6919,-3.6918,-3.6961,-3.6931,-3.6956,-3.6948,-3.6918,-3.692,-3.6989,-3.6991,-3.6945,-3.707,-3.7012,-3.7023,-3.7066,-3.7084,-3.7098,-3.7096,-3.6878,0,0,0,0,0,-3.6885,-3.6922,-3.6916,-3.6984,-3.6991,-3.6975,-3.6994,-3.6975,-3.6987,-3.6992,-3.6991,-3.7005,-3.7038,-3.7061,-3.7091,-3.7176,-3.7177,-3.7217,-3.7231,-3.7243,-3.7253,-3.7299,-3.7317,-3.7125,-3.7125,-3.7124,0,0,-3.6939,-3.6941,-3.6966,-3.6999,-3.7007,-3.7047,-3.698,-3.7025,-3.7054,-3.6999,-3.7059,-3.7059,-3.7073,-3.7148,-3.718,-3.7151,-3.7306,-3.7253,-3.7262,-3.7266,-3.7309,-3.7327,-3.7343,-3.713,-3.7129,-3.7128,0,0,-3.7058,-3.7063,-3.712,-3.7129,-3.7141,-3.713,-3.7144,-3.7148,-3.7146,-3.7206,-3.7165,-3.72,-3.7258,-3.7269,-3.7283,-3.7407,-3.7375,-3.7418,-3.7492,-3.7537,-3.7552,-3.7566,-3.7611,-3.7628,-3.7428,-3.7428,-3.7428,0,-3.7123,-3.7181,-3.7153,-3.7201,-3.7218,-3.7169,-3.7228,-3.7238,-3.726,-3.7272,-3.7239,-3.7312,-3.7317,-3.7395,-3.7425,-3.7437,-3.7453,-3.7417,-3.7552,-3.7565,-3.7577,-3.762,-3.7637,-3.7433,-3.7432,-3.7432,-3.7431,0,-3.7262,-3.7303,-3.7348,-3.737,-3.7391,-3.7444,-3.7425,-3.745,-3.7429,-3.7422,-3.7484,-3.7489,-3.752,-3.7537,-3.7517,-3.7612,-3.7594,-3.7557,-3.7498,-3.7601,-3.7641,-3.7658,-3.7441,-3.7439,-3.7437,-3.7436,0,0,-3.743,-3.7437,-3.7454,-3.7464,-3.7474,-3.7506,-3.7557,-3.7587,-3.761,-3.7626,-3.7669,-3.772,-3.7686,-3.7701,-3.7682,-3.7722,-3.7822,-3.768,-3.768,-3.7707,-3.7929,-3.7957,-3.7977,-3.78,-3.7803,-3.7806,-3.7928,0,-3.7548,-3.7635,-3.7613,-3.77,-3.7738,-3.7693,-3.7738,-3.7749,-3.7744,-3.7776,-3.777,-3.7807,-3.7759,-3.7769,-3.7806,-3.7802,-3.7866,-3.7792,-3.7841,-3.7843,-3.784,-3.7997,-3.8027,-3.8142,-3.7943,-3.7946,-3.7948,0,-3.7697,-3.772,-3.7811,-3.7817,-3.7832,-3.7872,-3.7898,-3.7929,-3.7942,-3.7936,-3.7953,-3.7926,-3.7978,-3.7919,-3.799,-3.794,-3.7959,-3.796,-3.7964,-3.7968,-3.7902,-3.8007,-3.8178,-3.8196,-3.7972,-3.797,-3.7968,0,-3.7812,-3.7866,-3.7927,-3.7937,-3.7945,-3.7974,-3.7979,-3.7988,-3.8008,-3.8031,-3.8044,-3.8073,-3.8089,-3.8113,-3.8095,-3.8053,-3.8169,-3.8108,-3.8166,-3.8167,-3.8194,-3.8192,-3.8372,-3.8204,-3.8204,-3.8204,-3.8203,0,-3.7947,-3.8005,-3.7979,-3.8018,-3.8082,-3.8055,-3.8119,-3.8118,-3.8128,-3.8165,-3.8128,-3.8165,-3.8138,-3.8173,-3.8159,-3.8221,-3.8228,-3.8225,-3.8221,-3.8229,-3.823,-3.8241,-3.8233,-3.8208,-3.8207,-3.8206,-3.8206,0,-3.8086,-3.8071,-3.8136,-3.8138,-3.814,-3.8187,-3.8189,-3.8224,-3.8216,-3.8265,-3.8275,-3.8263,-3.8302,-3.8286,-3.8327,-3.8318,-3.8398,-3.8383,-3.8394,-3.839,-3.845,-3.8445,-3.8643,-3.8669,-3.8484,-3.8486,-3.8487,0,-3.8174,-3.8217,-3.8224,-3.8246,-3.8253,-3.829,-3.831,-3.8286,-3.8309,-3.8327,-3.8361,-3.8397,-3.8424,-3.8488,-3.8484,-3.8515,-3.8501,-3.8569,-3.8506,-3.8513,-3.8504,-3.8502,-3.8507,-3.8582,-3.8584,-3.8586,-3.8587,0,-3.8331,-3.8321,-3.8351,-3.838,-3.8405,-3.8426,-3.8444,-3.8465,-3.8441,-3.8469,-3.8508,-3.8529,-3.8571,-3.8607,-3.8636,-3.8641,-3.8611,-3.8607,-3.8622,-3.8631,-3.8636,-3.8636,-3.8429,-3.8602,-3.8601,-3.86,-3.8599,-3.8598,-3.8447,-3.8484,-3.8495,-3.853,-3.8541,-3.8559,-3.8593,-3.859,-3.8622,-3.8654,-3.8638,-3.8684,-3.8696,-3.8731,-3.8741,-3.8777,-3.8751,-3.8773,-3.8779,-3.8785,-3.8793,-3.863,-3.8782,-3.8781,-3.8781,-3.8781,-3.878,0,-3.8603,-3.8608,-3.8641,-3.8667,-3.8695,-3.8664,-3.8682,-3.8708,-3.8749,-3.8763,-3.879,-3.8836,-3.8871,-3.887,-3.8903,-3.8932,-3.8919,-3.8942,-3.894,-3.8942,-3.8814,-3.8798,-3.8951,-3.8951,-3.8951,-3.8951,-3.8951,-3.8951,-3.8688,-3.8749,-3.8741,-3.8808,-3.8813,-3.8857,-3.8871,-3.8887,-3.8898,-3.8951,-3.898,-3.8979,-3.8987,-3.902,-3.9051,-3.905,-3.9065,-3.9092,-3.9086,-3.8967,-3.895,-3.8934,-3.8919,-3.9095,-3.9096,-3.9211,-3.9212,-3.9213]},{"header":{"parameterUnit":"m.s-1","parameterCategory":1,"la1":30.2991,"la2":30.254,"lo1":-89.0895,"lo2":-89.0444,"dy":0.0017,"dx":0.0017,"nx":28,"ny":28,"refTime":"2025-08-31T21:00:00:Z","depth":0,"parameterNumber":3,"parameterNumberName":"V-component_of_WINDS"},"data":[0,0,0,0,0,0,0,0,0,0,0,0,0,0,0,0,0,0,0,0,0,0,0,0,0,0,0,0,0,0,0,0,0,0,0,0,0,0,0,0,0,0,0,0,0,0,0,0,0,0,0,0,0,0,0,0,0,0,-3.843,-3.843,0,-3.8441,-3.8441,-3.8441,-3.8391,-3.8389,-3.8388,-3.8387,-3.8396,-3.8398,-3.8399,0,0,0,0,0,0,0,0,0,0,0,0,0,-3.8363,-3.8365,-3.843,-3.843,-3.8431,-3.8441,-3.8441,-3.8442,-3.8391,-3.8389,-3.8388,-3.8386,-3.8396,-3.8397,-3.8399,0,0,0,0,0,0,0,0,0,0,0,0,0,-3.8385,-3.8365,-3.843,-3.8407,-3.8405,-3.8441,-3.8441,-3.8442,-3.8392,-3.8389,-3.8387,-3.8385,-3.8395,-3.8397,-3.84,-3.8459,0,0,-3.8407,-3.8408,0,0,0,0,0,0,0,0,-3.8384,-3.8388,-3.841,-3.8408,-3.8406,-3.8412,-3.8421,-3.8447,-3.8392,-3.8397,-3.8387,-3.8384,-3.8403,-3.8405,-3.8412,-3.8459,-3.846,-3.8407,-3.8409,-3.841,-3.8411,0,0,0,0,0,0,0,-3.8383,-3.8387,-3.8435,-3.841,-3.8408,-3.8395,-3.8396,-3.8426,-3.8412,-3.8396,-3.8392,-3.8394,-3.8402,-3.8409,-3.8412,-3.846,-3.8407,-3.8409,-3.8411,-3.8412,-3.8556,-3.8558,0,0,0,0,0,0,-3.8385,-3.8386,-3.8434,-3.8435,-3.839,-3.8398,-3.8399,-3.8413,-3.8412,-3.8409,-3.8396,-3.8392,-3.8406,-3.8409,-3.8412,-3.848,-3.841,-3.8412,-3.8414,-3.8553,-3.8556,-3.8559,0,0,0,0,0,0,-3.8383,-3.8389,-3.8434,-3.841,-3.8414,-3.8401,-3.8418,-3.8414,-3.8422,-3.8412,-3.8409,-3.8407,-3.8405,-3.8408,-3.8447,-3.848,-3.8413,-3.8415,-3.855,-3.8554,-3.8557,-3.8618,0,0,0,0,0,0,-3.8382,-3.8389,-3.8412,-3.841,-3.8416,-3.847,-3.842,-3.8416,-3.8426,-3.8421,-3.8421,-3.8419,-3.8403,-3.8444,-3.845,-3.8482,-3.8417,-3.8547,-3.8552,-3.8556,-3.8613,-3.8624,-3.8632,0,0,0,0,0,-3.8379,-3.8429,-3.8414,-3.842,-3.8444,-3.8472,-3.8475,-3.8457,-3.8429,-3.8452,-3.8445,-3.8419,-3.8476,-3.8448,-3.8455,-3.8488,-3.8545,-3.8551,-3.8556,-3.8609,-3.8622,-3.8632,0,0,0,0,0,0,-3.8434,-3.8428,-3.8411,-3.8461,-3.8468,-3.8464,-3.8491,-3.847,-3.8484,-3.8478,-3.8454,-3.8455,-3.8498,-3.8497,-3.8467,-3.8545,-3.8505,-3.8512,-3.8544,-3.8556,-3.8565,-3.8564,-3.8419,0,0,0,0,0,-3.8452,-3.8476,-3.8469,-3.8514,-3.8518,-3.8504,-3.8516,-3.8501,-3.8506,-3.8509,-3.8505,-3.8511,-3.853,-3.8543,-3.8559,-3.8613,-3.8612,-3.8639,-3.8649,-3.8656,-3.8662,-3.869,-3.8702,-3.8576,-3.8576,-3.8576,0,0,-3.8489,-3.8489,-3.8505,-3.8525,-3.8528,-3.8553,-3.8507,-3.8535,-3.8553,-3.8513,-3.8549,-3.8547,-3.8552,-3.8598,-3.8619,-3.8599,-3.8697,-3.8663,-3.8669,-3.8671,-3.8697,-3.8709,-3.8719,-3.858,-3.8579,-3.8578,0,0,-3.8569,-3.8572,-3.8609,-3.8613,-3.8619,-3.8609,-3.8618,-3.8617,-3.8614,-3.8651,-3.8622,-3.8642,-3.8675,-3.868,-3.8686,-3.8768,-3.8744,-3.8774,-3.8823,-3.8851,-3.8861,-3.8869,-3.8898,-3.8909,-3.878,-3.878,-3.878,0,-3.8615,-3.8651,-3.8631,-3.8661,-3.867,-3.8636,-3.8673,-3.8678,-3.8688,-3.8695,-3.8673,-3.8714,-3.8715,-3.8761,-3.8781,-3.8788,-3.8797,-3.8774,-3.8861,-3.8869,-3.8877,-3.8904,-3.8915,-3.8784,-3.8784,-3.8783,-3.8783,0,-3.8706,-3.8732,-3.8762,-3.8773,-3.8786,-3.8819,-3.8804,-3.8819,-3.8803,-3.8795,-3.8833,-3.8832,-3.8848,-3.8858,-3.8843,-3.8903,-3.8891,-3.8865,-3.8825,-3.8893,-3.8918,-3.8928,-3.8789,-3.8788,-3.8787,-3.8786,0,0,-3.8821,-3.8821,-3.8832,-3.8837,-3.884,-3.886,-3.8891,-3.8907,-3.892,-3.8929,-3.8954,-3.8983,-3.896,-3.8967,-3.8952,-3.8976,-3.904,-3.8947,-3.8947,-3.8964,-3.9106,-3.9125,-3.9137,-3.9024,-3.9026,-3.9028,-3.9105,0,-3.89,-3.8954,-3.8937,-3.8992,-3.9015,-3.8982,-3.901,-3.9015,-3.9009,-3.9027,-3.9019,-3.904,-3.9008,-3.9012,-3.9034,-3.9028,-3.9068,-3.9022,-3.9047,-3.9049,-3.9047,-3.915,-3.9171,-3.9244,-3.9115,-3.9117,-3.9118,0,-3.8999,-3.9011,-3.9069,-3.9068,-3.9077,-3.9102,-3.9115,-3.9133,-3.9137,-3.9131,-3.914,-3.9119,-3.915,-3.911,-3.9151,-3.912,-3.9129,-3.9128,-3.913,-3.9131,-3.9087,-3.9154,-3.9267,-3.9278,-3.9133,-3.9132,-3.9131,0,-3.9076,-3.9108,-3.9146,-3.9151,-3.9151,-3.9169,-3.917,-3.9172,-3.9183,-3.9194,-3.9201,-3.9215,-3.9223,-3.9235,-3.9219,-3.9191,-3.9262,-3.9221,-3.9257,-3.9258,-3.9273,-3.9273,-3.9389,-3.928,-3.928,-3.928,-3.928,0,-3.9166,-3.9202,-3.9181,-3.9205,-3.9244,-3.9223,-3.9263,-3.926,-3.9262,-3.9284,-3.9256,-3.9277,-3.9255,-3.9273,-3.9261,-3.9297,-3.93,-3.9296,-3.9292,-3.9298,-3.9299,-3.9304,-3.9298,-3.9283,-3.9282,-3.9281,-3.9281,0,-3.9259,-3.9247,-3.9286,-3.9283,-3.9283,-3.9312,-3.9309,-3.933,-3.9322,-3.935,-3.9355,-3.9343,-3.9363,-3.9348,-3.9369,-3.936,-3.9407,-3.9396,-3.9406,-3.9403,-3.944,-3.9437,-3.9563,-3.9578,-3.946,-3.9461,-3.9462,0,-3.9317,-3.9344,-3.9344,-3.9357,-3.9359,-3.938,-3.9391,-3.9372,-3.9384,-3.9391,-3.9411,-3.9429,-3.9443,-3.9477,-3.947,-3.9485,-3.9474,-3.9517,-3.9476,-3.9482,-3.9474,-3.9473,-3.9475,-3.9526,-3.9527,-3.9528,-3.9529,0,-3.9421,-3.9413,-3.943,-3.9445,-3.9459,-3.9469,-3.9477,-3.9489,-3.9469,-3.9485,-3.9506,-3.9516,-3.9537,-3.9555,-3.9568,-3.9568,-3.9545,-3.9542,-3.9551,-3.9558,-3.9562,-3.956,-3.9428,-3.9539,-3.9538,-3.9538,-3.9537,-3.9537,-3.9498,-3.952,-3.9523,-3.9543,-3.9547,-3.9556,-3.9575,-3.957,-3.9587,-3.9603,-3.959,-3.9615,-3.9618,-3.9632,-3.9635,-3.9654,-3.9636,-3.965,-3.9653,-3.9656,-3.9662,-3.956,-3.9656,-3.9656,-3.9656,-3.9655,-3.9655,0,-3.96,-3.96,-3.9618,-3.9631,-3.9646,-3.9624,-3.9632,-3.9646,-3.9669,-3.9673,-3.9687,-3.9711,-3.9729,-3.9723,-3.9738,-3.9754,-3.9744,-3.9759,-3.9757,-3.9758,-3.9677,-3.9667,-3.9767,-3.9767,-3.9767,-3.9767,-3.9767,-3.9767,-3.9655,-3.9691,-3.9684,-3.9722,-3.9722,-3.9747,-3.9753,-3.9761,-3.9764,-3.9792,-3.9807,-3.9803,-3.9803,-3.9818,-3.9833,-3.9831,-3.9838,-3.9856,-3.985,-3.9775,-3.9763,-3.9753,-3.9744,-3.9858,-3.9858,-3.9929,-3.993,-3.993]}]]